MPEC 2007-V118: 2007 VJ189

The following Minor Planet Electronic Circular may be linked-to from your own Web pages, but must not otherwise be redistributed electronically.


Read MPEC 2007-V117 Read MPEC 2007-V119


M.P.E.C. 2007-V118                               Issued 2007 Nov. 15, 14:00 UT

     The Minor Planet Electronic Circulars contain information on unusual
         minor planets and routine data on comets.  They are published
   on behalf of Commission 20 of the International Astronomical Union by the
          Minor Planet Center, Smithsonian Astrophysical Observatory,
                          Cambridge, MA 02138, U.S.A.

             Prepared using the Tamkin Foundation Computer Network

                              MPC@CFA.HARVARD.EDU
          URL http://www.cfa.harvard.edu/iau/mpc.html  ISSN 1523-6714

                                  2007 VJ189

Observations:
     K07VI9J  C2007 11 14.35096 03 43 40.65 +05 34 29.3          21.5 V EV118G96
     K07VI9J  C2007 11 14.35422 03 43 39.03 +05 35 12.8          22.4 V EV118G96
     K07VI9J  C2007 11 14.35744 03 43 37.30 +05 35 56.8          21.1 V EV118G96
     K07VI9J  C2007 11 14.36066 03 43 35.65 +05 36 41.6          21.1 V EV118G96
     K07VI9J* C2007 11 14.38109 03 43 24.99 +05 41 21.3          20.5 V EV118G96
     K07VI9J  C2007 11 14.38176 03 43 24.63 +05 41 31.0          21.1 V EV118G96
     K07VI9J  C2007 11 14.38241 03 43 24.27 +05 41 41.7          20.6 V EV118G96
     K07VI9J  C2007 11 14.38306 03 43 23.91 +05 41 50.6          20.6 V EV118G96
     K07VI9J  C2007 11 14.40661 03 43 11.71 +05 47 12.8          21.7 V EV118G96
     K07VI9J  C2007 11 14.40714 03 43 11.46 +05 47 19.4          21.7 V EV118G96
     K07VI9J  C2007 11 14.40770 03 43 11.17 +05 47 27.2          21.0 V EV118G96
     K07VI9J  C2007 11 14.40823 03 43 10.88 +05 47 34.4          20.9 V EV118G96
     K07VI9J  C2007 11 14.95905 03 38 51.06 +07 52 02.8          20.9 R EV118J95
     K07VI9J  C2007 11 14.98506 03 38 37.86 +07 57 52.8          21.3 R EV118J95
     K07VI9J  C2007 11 15.24381 03 36 36.28 +08 56 06.4          20.6 V EV118G96
     K07VI9J  C2007 11 15.24925 03 36 33.51 +08 57 19.3          20.9 V EV118G96
     K07VI9J  C2007 11 15.25471 03 36 30.70 +08 58 31.2          20.2 V EV118G96
     K07VI9J  C2007 11 15.26021 03 36 27.90 +08 59 44.9          20.9 V EV118G96

Observer details:
G96 Mt. Lemmon Survey.  Observer A. Boattini.  Measurers E. C. Beshore,
    A. Boattini, G. J. Garradd, A. R. Gibbs, A. D. Grauer, R. E. Hill,
    R. A. Kowalski, S. M. Larson, R. H. McNaught.  1.5-m reflector + CCD.
J95 Great Shefford.  Observer P. Birtwhistle.  0.40-m f/6.0 Schmidt-Cassegrain
    + CCD.

Orbital elements:
2007 VJ189                                               Earth MOID = 0.0762 AU
Epoch 2007 Oct. 27.0 TT = JDT 2454400.5                 MPC
M  46.58759              (2000.0)            P               Q
n   0.82727886     Peri.  278.60767     +0.85321498     +0.45422699
a   1.1238321      Node    54.77355     -0.26124198     +0.79755443
e   0.1502268      Incl.   18.28747     -0.45141647     +0.39696949
P   1.19           H   25.7           G   0.15           U   8
Residuals in seconds of arc
071114 G96  0.6-  0.8+    071114 G96  0.3-  1.2+    071114 J95  0.5+  0.5+
071114 G96  0.7+  0.5-    071114 G96  0.6-  1.1+    071114 J95  0.2+  0.1-
071114 G96  0.0   0.8-    071114 G96  0.5-  0.3+    071115 G96  0.8-  0.1-
071114 G96  0.4+  0.2-    071114 G96  0.1-  0.3-    071115 G96  0.6-  0.2+
071114 G96  0.2+  1.1-    071114 G96  0.1-  0.2-    071115 G96  0.7-  0.8-
071114 G96  0.1+  0.6-    071114 G96  0.4-  0.3-    071115 G96  0.4-  0.4-

Ephemeris:
2007 VJ189               a,e,i = 1.12, 0.15, 18                  q = 0.9550
Date    TT    R. A. (2000) Decl.     Delta      r     Elong.  Phase     V
2007 11 16    03 30.63   +11 41.6    0.0812   1.070   172.9     6.6    20.9
2007 11 17    03 22.93   +15 09.7    0.0834   1.072   176.2     3.5    20.8
2007 11 18    03 15.45   +18 25.3    0.0861   1.075   176.2     3.5    20.9
2007 11 19    03 08.20   +21 27.3    0.0891   1.077   173.3     6.2    21.1
2007 11 20    03 01.21   +24 15.5    0.0925   1.079   169.9     9.2    21.3
2007 11 21    02 54.49   +26 49.9    0.0962   1.082   166.7    12.1    21.5
2007 11 22    02 48.06   +29 11.1    0.100    1.084   163.6    14.9    21.7
2007 11 23    02 41.91   +31 19.7    0.105    1.087   160.7    17.5    21.9
2007 11 24    02 36.07   +33 16.6    0.109    1.089   158.0    19.8    22.1
2007 11 25    02 30.53   +35 02.6    0.114    1.092   155.5    22.0    22.2
2007 11 26    02 25.28   +36 38.8    0.119    1.094   153.2    24.0    22.4

Timothy B. Spahr             (C) Copyright 2007 MPC           M.P.E.C. 2007-V118

Read MPEC 2007-V117 Read MPEC 2007-V119


Our Web policy. Index to the CBAT/MPC/ICQ pages.

MPC

Valid HTML 4.01!